CW6617 Weather Reports


time (UTC)temp
C
wind
direction
speed
KPH
gust
KPH
rain 1hr
cm
rain 24hr
cm
rain mn
cm
humidity
%
barometer
mb
20260508171204 17 144 1.6 4.8 0.00 0.00 0.00 63 1016.2
20260508170703 17 141 0.0 1.6 0.00 0.00 0.00 63 1016.1
20260508170204 17 141 0.0 8.0 0.00 0.00 0.00 62 1016.1
20260508164704 18 161 1.6 12.9 0.00 0.00 0.00 61 1016.0
20260508164204 18 137 4.8 14.5 0.00 0.00 0.00 59 1016.1
20260508163703 18 167 8.0 16.1 0.00 0.00 0.00 59 1016.1
20260508161703 18 165 3.2 14.5 0.00 0.00 0.00 59 1016.1
20260508161204 18 136 3.2 14.5 0.00 0.00 0.00 59 1016.2
20260508160704 18 146 3.2 9.7 0.00 0.00 0.00 59 1016.1
20260508160204 18 163 4.8 19.3 0.00 0.00 0.00 59 1016.1
20260508154704 18 163 12.9 16.1 0.00 0.00 0.00 56 1016.1
20260508153704 20 112 6.4 16.1 0.00 0.00 0.00 56 1016.1
20260508153204 20 173 6.4 16.1 0.00 0.00 0.00 58 1016.1
20260508151703 19 161 3.2 20.9 0.00 0.00 0.00 57 1016.3
20260508151204 18 172 1.6 9.7 0.00 0.00 0.00 61 1016.3
20260508150703 18 159 8.0 14.5 0.00 0.00 0.00 62 1016.3
20260508150204 17 121 4.8 16.1 0.00 0.00 0.00 61 1016.3
20260508144704 18 30 4.8 14.5 0.00 0.00 0.00 59 1016.3
20260508144204 18 149 3.2 11.3 0.00 0.00 0.00 59 1016.3
20260508143704 18 49 8.0 19.3 0.00 0.00 0.00 60 1016.2
20260508143204 18 94 14.5 22.5 0.00 0.00 0.00 60 1016.2
20260508141704 16 101 1.6 19.3 0.00 0.00 0.00 68 1016.3
20260508141203 16 65 6.4 12.9 0.00 0.00 0.00 67 1016.5
20260508140704 16 42 8.0 11.3 0.00 0.00 0.00 68 1016.5
20260508140204 16 59 4.8 12.9 0.00 0.00 0.00 69 1016.5
20260508133706 15 79 3.2 12.9 0.00 0.00 0.00 70 1016.5
20260508133204 15 103 3.2 16.1 0.00 0.00 0.00 69 1016.6
20260508131703 16 136 4.8 12.9 0.00 0.00 0.00 67 1016.6
20260508131204 16 122 1.6 14.5 0.00 0.00 0.00 67 1016.6
20260508130704 16 169 3.2 16.1 0.00 0.00 0.00 67 1016.5
20260508130204 16 176 4.8 16.1 0.00 0.00 0.00 67 1016.5
20260508124703 16 84 3.2 12.9 0.00 0.00 0.00 69 1016.5
20260508124204 16 137 1.6 8.0 0.00 0.00 0.00 70 1016.6
20260508123704 15 100 1.6 11.3 0.00 0.00 0.00 72 1016.5
20260508123205 15 77 6.4 14.5 0.00 0.00 0.00 72 1016.6
20260508121704 15 148 3.2 12.9 0.00 0.00 0.00 76 1016.6
20260508120703 14 138 1.6 8.0 0.00 0.00 0.00 78 1016.7
20260508120203 14 147 4.8 11.3 0.00 0.00 0.00 79 1016.7
20260508114703 14 115 3.2 14.5 0.00 0.00 0.00 79 1016.7
20260508114204 14 102 1.6 11.3 0.00 0.00 0.00 79 1016.8
20260508111703 14 123 0.0 1.6 0.00 0.00 0.00 76 1016.9
20260508111204 14 123 0.0 3.2 0.00 0.00 0.00 75 1017.0
20260508110704 14 123 0.0 4.8 0.00 0.00 0.00 73 1016.9
20260508110203 14 125 3.2 11.3 0.00 0.00 0.00 72 1016.9
20260508104704 14 115 0.0 3.2 0.00 0.00 0.00 72 1016.9
20260508104204 14 95 1.6 12.9 0.00 0.00 0.00 73 1016.9
20260508103704 14 111 3.2 9.7 0.00 0.00 0.00 75 1016.9
20260508103204 14 164 1.6 9.7 0.00 0.00 0.00 75 1016.9
20260508101704 14 168 1.6 3.2 0.00 0.00 0.00 74 1016.7
20260508101203 14 168 0.0 3.2 0.00 0.00 0.00 74 1016.6
20260508100704 14 168 0.0 9.7 0.00 0.00 0.00 73 1016.7
20260508100204 14 168 4.8 11.3 0.00 0.00 0.00 72 1016.7
20260508094204 14 130 3.2 11.3 0.00 0.00 0.00 70 1016.7
20260508093704 14 165 4.8 11.3 0.00 0.00 0.00 70 1016.7
20260508093203 14 165 6.4 19.3 0.00 0.00 0.00 71 1016.7
20260508091204 15 138 4.8 12.9 0.00 0.00 0.00 68 1016.6
20260508090703 15 112 6.4 14.5 0.00 0.00 0.00 68 1016.5
20260508090204 15 120 8.0 14.5 0.00 0.00 0.00 69 1016.6
20260508084704 15 172 4.8 11.3 0.00 0.00 0.00 73 1016.5
20260508083703 14 166 4.8 12.9 0.00 0.00 0.00 73 1016.5
20260508083204 14 107 3.2 16.1 0.00 0.00 0.00 74 1016.6
20260508081704 13 166 3.2 14.5 0.00 0.00 0.00 80 1016.5
20260508081204 12 92 3.2 12.9 0.00 0.00 0.00 80 1016.5
20260508080704 12 165 3.2 16.1 0.00 0.00 0.00 82 1016.5
20260508080203 12 156 4.8 19.3 0.00 0.00 0.00 82 1016.3
20260508074704 11 96 8.0 14.5 0.00 0.00 0.00 86 1016.4
20260508074204 11 163 1.6 9.7 0.00 0.00 0.00 88 1016.4
20260508073703 11 72 3.2 8.0 0.00 0.00 0.00 88 1016.4
20260508071704 10 94 3.2 16.1 0.00 0.00 0.00 89 1016.3
20260508071203 10 105 4.8 14.5 0.00 0.00 0.00 90 1016.2
20260508070704 10 117 4.8 11.3 0.00 0.00 0.00 89 1016.3
20260508070204 10 107 3.2 14.5 0.00 0.00 0.00 89 1016.3
20260508064704 9 87 3.2 12.9 0.00 0.00 0.00 89 1016.2
20260508064204 9 80 4.8 12.9 0.00 0.00 0.00 89 1016.2
20260508063705 9 61 3.2 12.9 0.00 0.00 0.00 90 1016.2
20260508063204 9 114 3.2 12.9 0.00 0.00 0.00 90 1016.2
20260508061203 8 95 1.6 11.3 0.00 0.00 0.00 90 1016.2
20260508060704 8 57 4.8 11.3 0.00 0.00 0.00 90 1016.2
20260508060204 8 89 3.2 11.3 0.00 0.00 0.00 90 1016.2
20260508054703 8 115 3.2 9.7 0.00 0.00 0.00 90 1016.1
20260508054204 8 71 4.8 11.3 0.00 0.00 0.00 90 1016.2
20260508053704 8 114 3.2 11.3 0.00 0.00 0.00 90 1016.2
20260508053203 8 115 3.2 11.3 0.00 0.00 0.00 90 1016.1
20260508051204 8 80 4.8 11.3 0.00 0.00 0.00 89 1016.0
20260508050703 8 110 3.2 8.0 0.00 0.00 0.00 89 1016.0
20260508050203 8 74 4.8 14.5 0.00 0.00 0.00 90 1016.0
20260508044703 8 97 3.2 9.7 0.00 0.00 0.00 89 1015.9
20260508044204 8 67 1.6 4.8 0.00 0.00 0.00 89 1015.9
20260508043703 8 63 1.6 8.0 0.00 0.00 0.00 89 1015.9
20260508041703 8 103 1.6 4.8 0.00 0.00 0.00 89 1015.8
20260508041204 8 61 1.6 8.0 0.00 0.00 0.00 89 1015.8
20260508040703 8 54 3.2 8.0 0.00 0.00 0.00 90 1015.7
20260508040203 8 94 3.2 12.9 0.00 0.00 0.00 90 1015.8
20260508034204 8 60 3.2 11.3 0.00 0.00 0.00 90 1015.7
20260508033703 8 70 3.2 11.3 0.00 0.00 0.00 90 1015.8
20260508033204 8 74 3.2 9.7 0.00 0.00 0.00 90 1015.8
20260508031204 8 72 3.2 8.0 0.00 0.00 0.00 91 1015.8
20260508030703 8 109 3.2 8.0 0.00 0.00 0.00 91 1015.9
20260508030204 8 104 1.6 8.0 0.00 0.00 0.00 91 1015.9
20260508024704 8 63 1.6 3.2 0.00 0.00 0.00 91 1016.0
20260508023704 8 68 1.6 3.2 0.00 0.00 0.00 91 1016.0
20260508023204 8 65 1.6 8.0 0.00 0.00 0.00 91 1016.0
20260508020704 8 89 1.6 4.8 0.00 0.00 0.00 91 1016.0
20260508020204 8 67 3.2 8.0 0.00 0.00 0.00 92 1016.0
20260508014704 7 87 1.6 4.8 0.00 0.00 0.00 91 1016.1
20260508014204 7 87 3.2 4.8 0.00 0.00 0.00 92 1016.1
20260508013703 7 88 1.6 3.2 0.00 0.00 0.00 92 1016.1
20260508013204 7 87 1.6 8.0 0.00 0.00 0.00 92 1016.1
20260508011704 7 96 1.6 8.0 0.00 0.00 0.00 91 1016.1
20260508011204 7 57 3.2 9.7 0.00 0.00 0.00 91 1016.1
20260508010704 7 103 1.6 3.2 0.00 0.00 0.00 91 1016.2
20260508004705 7 104 0.0 3.2 0.00 0.00 0.00 90 1016.3
20260508004203 7 104 0.0 1.6 0.00 0.00 0.00 90 1016.2
20260508003704 7 104 0.0 1.6 0.00 0.00 0.00 90 1016.3
20260508003204 7 104 0.0 1.6 0.00 0.00 0.00 90 1016.4
20260508000704 7 104 1.6 3.2 0.00 0.00 0.00 89 1016.4
20260508000205 7 103 0.0 4.8 0.00 0.00 0.00 89 1016.3
20260507234704 7 65 0.0 1.6 0.00 0.00 0.00 88 1016.5
20260507234204 7 65 0.0 0.0 0.00 0.00 0.00 87 1016.5
20260507233703 7 65 0.0 0.0 0.00 0.00 0.00 87 1016.5
20260507233204 7 65 0.0 1.6 0.00 0.00 0.00 87 1016.6
20260507231704 7 65 0.0 0.0 0.00 0.00 0.00 85 1016.6
20260507230704 8 65 0.0 0.0 0.00 0.00 0.00 85 1016.6
20260507230203 8 65 0.0 0.0 0.00 0.00 0.00 85 1016.7
20260507224704 8 65 0.0 0.0 0.00 0.00 0.00 84 1016.8
20260507224203 8 65 0.0 0.0 0.00 0.00 0.00 84 1016.8
20260507223704 8 65 0.0 0.0 0.00 0.00 0.00 84 1016.9
20260507223204 8 65 0.0 1.6 0.00 0.00 0.00 84 1016.8
20260507221704 8 62 3.2 8.0 0.00 0.00 0.00 84 1016.5
20260507221203 8 119 1.6 4.8 0.00 0.00 0.00 83 1016.4
20260507220704 8 148 1.6 4.8 0.00 0.00 0.00 83 1016.5
20260507220204 9 158 1.6 3.2 0.00 0.00 0.00 83 1016.6
20260507214704 9 158 0.0 0.0 0.00 0.00 0.00 82 1016.9
20260507213703 10 158 0.0 0.0 0.00 0.00 0.00 81 1016.9
20260507213204 10 158 0.0 0.0 0.00 0.00 0.00 81 1016.9
20260507211705 10 158 0.0 1.6 0.00 0.00 0.00 80 1016.8
20260507211204 10 158 1.6 3.2 0.00 0.00 0.00 80 1016.8
20260507210704 10 157 1.6 4.8 0.00 0.00 0.00 80 1016.7
20260507210204 10 157 1.6 3.2 0.00 0.00 0.00 79 1016.7
20260507204204 11 157 0.0 1.6 0.00 0.00 0.00 77 1016.4
20260507203703 11 157 0.0 0.0 0.00 0.00 0.00 77 1016.4
20260507203205 11 157 0.0 1.6 0.00 0.00 0.00 77 1016.4
20260507201203 11 157 0.0 0.0 0.00 0.00 0.00 75 1016.2
20260507200203 12 157 0.0 0.0 0.00 0.00 0.00 74 1016.1
20260507194703 12 157 0.0 1.6 0.00 0.00 0.00 73 1015.9
20260507193704 12 157 1.6 3.2 0.00 0.00 0.00 72 1015.8
20260507193203 12 157 0.0 4.8 0.00 0.00 0.00 72 1015.6
20260507191705 12 157 0.0 3.2 0.00 0.00 0.00 70 1015.5
20260507191204 12 159 3.2 9.7 0.00 0.00 0.00 70 1015.5
20260507190703 13 167 1.6 8.0 0.00 0.00 0.00 69 1015.4
20260507190204 13 168 4.8 12.9 0.00 0.00 0.00 70 1015.4
20260507184205 13 165 9.7 16.1 0.00 0.00 0.00 69 1015.5
20260507181703 14 173 6.4 20.9 0.00 0.00 0.00 68 1015.3
20260507181204 14 169 11.3 14.5 0.00 0.00 0.00 68 1015.3
20260507180704 14 162 9.7 20.9 0.00 0.00 0.00 68 1015.3
20260507180204 14 168 9.7 19.3 0.00 0.00 0.00 67 1015.2
20260507174704 14 171 4.8 16.1 0.00 0.00 0.00 65 1015.0
20260507174204 15 168 6.4 19.3 0.00 0.00 0.00 65 1015.1
20260507173703 15 166 4.8 14.5 0.00 0.00 0.00 64 1015.1
20260507173205 15 167 6.4 14.5 0.00 0.00 0.00 63 1015.1